[[{"header":{"parameterUnit":"m.s-1","parameterCategory":1,"la1":30.2991,"la2":30.254,"lo1":-89.0895,"lo2":-89.0444,"dy":0.0017,"dx":0.0017,"nx":28,"ny":28,"refTime":"2024-03-03T09:00:00:Z","depth":0,"parameterNumber":2,"parameterNumberName":"U-component_of_WINDS"},"data":[0,0,0,0,0,0,0,0,0,0,0,0,0,0,0,0,0,0,0,0,0,0,0,0,0,0,0,0,0,0,0,0,0,0,0,0,0,0,0,0,0,0,0,0,0,0,0,0,0,0,0,0,0,0,0,0,0,0,-3.8296,-3.8296,0,-3.8293,-3.8293,-3.8293,-3.8189,-3.8186,-3.8183,-3.8181,-3.8177,-3.8179,-3.8182,0,0,0,0,0,0,0,0,0,0,0,0,0,-3.8211,-3.8213,-3.8296,-3.8296,-3.8296,-3.8293,-3.8293,-3.8293,-3.8189,-3.8186,-3.8183,-3.8179,-3.8176,-3.8179,-3.8182,0,0,0,0,0,0,0,0,0,0,0,0,0,-3.8232,-3.8214,-3.8296,-3.8244,-3.8239,-3.8293,-3.8293,-3.8293,-3.819,-3.8186,-3.8182,-3.8178,-3.8175,-3.8179,-3.8182,-3.8286,0,0,-3.8193,-3.8195,0,0,0,0,0,0,0,0,-3.8231,-3.8235,-3.8251,-3.8247,-3.8242,-3.8237,-3.8261,-3.829,-3.8191,-3.8208,-3.8181,-3.8176,-3.82,-3.8202,-3.821,-3.8286,-3.8285,-3.8194,-3.8196,-3.8198,-3.8199,0,0,0,0,0,0,0,-3.823,-3.8235,-3.8294,-3.8252,-3.8246,-3.822,-3.8219,-3.8266,-3.8227,-3.8207,-3.8199,-3.82,-3.8197,-3.8207,-3.8209,-3.8285,-3.8194,-3.8197,-3.8199,-3.8201,-3.8446,-3.845,0,0,0,0,0,0,-3.8235,-3.8234,-3.8294,-3.8294,-3.8226,-3.8225,-3.8223,-3.8243,-3.8226,-3.822,-3.8204,-3.8195,-3.8202,-3.8205,-3.8208,-3.8328,-3.8198,-3.8201,-3.8203,-3.8442,-3.8447,-3.8451,0,0,0,0,0,0,-3.8234,-3.8242,-3.8294,-3.8262,-3.8267,-3.8231,-3.8253,-3.8245,-3.8254,-3.8224,-3.8216,-3.8221,-3.8199,-3.8203,-3.8267,-3.8326,-3.8203,-3.8206,-3.8436,-3.8443,-3.8449,-3.8568,0,0,0,0,0,0,-3.8232,-3.8242,-3.8281,-3.8264,-3.8269,-3.8354,-3.8257,-3.8248,-3.8261,-3.825,-3.8238,-3.8232,-3.8196,-3.8263,-3.8271,-3.8329,-3.8209,-3.8431,-3.8439,-3.8447,-3.8559,-3.8578,-3.8594,0,0,0,0,0,-3.8229,-3.8314,-3.8283,-3.8291,-3.8317,-3.8357,-3.836,-3.8318,-3.8266,-3.8305,-3.8285,-3.8232,-3.8319,-3.827,-3.8279,-3.8339,-3.8427,-3.8437,-3.8446,-3.8551,-3.8574,-3.8594,0,0,0,0,0,0,-3.8338,-3.8311,-3.8276,-3.8358,-3.8361,-3.834,-3.8387,-3.8344,-3.8361,-3.835,-3.8296,-3.8295,-3.8367,-3.8359,-3.8305,-3.8438,-3.8364,-3.8376,-3.844,-3.8462,-3.848,-3.8479,-3.8212,0,0,0,0,0,-3.8372,-3.8407,-3.8381,-3.8456,-3.8459,-3.8424,-3.8439,-3.8407,-3.8407,-3.8408,-3.8393,-3.8396,-3.8423,-3.8442,-3.8466,-3.8558,-3.8554,-3.8604,-3.8621,-3.8636,-3.8647,-3.8695,-3.8716,-3.8484,-3.8483,-3.8483,0,0,-3.8441,-3.8431,-3.8456,-3.8478,-3.8476,-3.8514,-3.8425,-3.8468,-3.8496,-3.8414,-3.8473,-3.8463,-3.8463,-3.8541,-3.8575,-3.8537,-3.871,-3.8649,-3.8661,-3.8663,-3.8707,-3.8729,-3.8749,-3.849,-3.8489,-3.8488,0,0,-3.8586,-3.8583,-3.8644,-3.8645,-3.8644,-3.862,-3.8635,-3.8621,-3.8611,-3.867,-3.8609,-3.8641,-3.869,-3.8692,-3.87,-3.8848,-3.88,-3.8858,-3.895,-3.8997,-3.9016,-3.9032,-3.9084,-3.9104,-3.8869,-3.8869,-3.8869,0,-3.8672,-3.8727,-3.8681,-3.8729,-3.874,-3.8669,-3.8731,-3.8734,-3.8741,-3.875,-3.8708,-3.8768,-3.8763,-3.8841,-3.8877,-3.8886,-3.8901,-3.8858,-3.9017,-3.9032,-3.9047,-3.9096,-3.9116,-3.8876,-3.8875,-3.8874,-3.8874,0,-3.8833,-3.8872,-3.8922,-3.8931,-3.8948,-3.9003,-3.8965,-3.8988,-3.8955,-3.8935,-3.8997,-3.8988,-3.9009,-3.9025,-3.8993,-3.9099,-3.9075,-3.9026,-3.895,-3.9076,-3.9122,-3.914,-3.8886,-3.8883,-3.8881,-3.8879,0,0,-3.9044,-3.9029,-3.9048,-3.9051,-3.9046,-3.9075,-3.9127,-3.9148,-3.9168,-3.9176,-3.9218,-3.9262,-3.9217,-3.9225,-3.9193,-3.9235,-3.9352,-3.918,-3.9179,-3.9211,-3.9469,-3.9505,-3.9528,-3.9321,-3.9325,-3.9327,-3.9468,0,-3.9184,-3.9272,-3.9233,-3.9325,-3.936,-3.9295,-3.934,-3.9342,-3.9325,-3.9353,-3.9335,-3.9367,-3.9304,-3.9309,-3.9348,-3.933,-3.9403,-3.9319,-3.9359,-3.9361,-3.936,-3.9551,-3.9589,-3.9723,-3.9486,-3.9489,-3.9491,0,-3.9358,-3.9374,-3.947,-3.9459,-3.9472,-3.9514,-3.953,-3.9558,-3.9559,-3.9544,-3.9555,-3.9513,-3.9563,-3.9489,-3.9558,-3.9502,-3.9516,-3.951,-3.9514,-3.9515,-3.9433,-3.9556,-3.9764,-3.9784,-3.9519,-3.9516,-3.9514,0,-3.9502,-3.9547,-3.961,-3.9616,-3.9605,-3.9635,-3.9632,-3.9629,-3.9645,-3.9659,-3.9669,-3.9689,-3.97,-3.9717,-3.9682,-3.9632,-3.9756,-3.9679,-3.9744,-3.9745,-3.9772,-3.977,-3.9984,-3.9784,-3.9783,-3.9783,-3.9783,0,-3.9661,-3.9722,-3.9675,-3.9713,-3.978,-3.9735,-3.9802,-3.9792,-3.979,-3.9826,-3.9771,-3.9805,-3.9757,-3.9787,-3.976,-3.9821,-3.9827,-3.9816,-3.9807,-3.982,-3.9821,-3.9827,-3.9817,-3.9788,-3.9787,-3.9786,-3.9785,0,-3.9832,-3.9803,-3.9867,-3.9852,-3.985,-3.99,-3.9886,-3.9922,-3.9902,-3.9948,-3.9956,-3.9926,-3.9959,-3.9926,-3.9956,-3.9938,-4.0019,-3.9998,-4.0019,-4.0012,-4.0079,-4.0073,-4.0303,-4.0331,-4.0115,-4.0117,-4.0119,0,-3.9935,-3.998,-3.9971,-3.9991,-3.9991,-4.0024,-4.004,-3.9999,-4.0017,-4.0023,-4.0058,-4.0086,-4.0105,-4.0161,-4.0141,-4.0164,-4.0142,-4.0222,-4.0145,-4.0157,-4.0142,-4.014,-4.0144,-4.0237,-4.0239,-4.0241,-4.0243,0,-4.012,-4.0104,-4.0129,-4.015,-4.017,-4.0185,-4.0194,-4.0214,-4.0171,-4.0195,-4.0228,-4.0244,-4.0276,-4.0304,-4.0322,-4.0318,-4.0274,-4.0268,-4.0284,-4.0296,-4.0306,-4.03,-4.006,-4.0262,-4.026,-4.0259,-4.0258,-4.0257,-4.0259,-4.0296,-4.0296,-4.0326,-4.0329,-4.034,-4.0373,-4.0358,-4.0385,-4.0408,-4.0382,-4.0422,-4.0423,-4.0442,-4.0444,-4.0475,-4.0441,-4.0465,-4.0471,-4.0477,-4.0486,-4.0303,-4.0478,-4.0478,-4.0477,-4.0477,-4.0476,0,-4.044,-4.0437,-4.0466,-4.0482,-4.0506,-4.0463,-4.0472,-4.0495,-4.0531,-4.0536,-4.0557,-4.0596,-4.0623,-4.0607,-4.0631,-4.0659,-4.0639,-4.0666,-4.0663,-4.0663,-4.0515,-4.0499,-4.0682,-4.0682,-4.0682,-4.0682,-4.0682,-4.0682,-4.0537,-4.0598,-4.0583,-4.0645,-4.0641,-4.0681,-4.069,-4.07,-4.0703,-4.0748,-4.0772,-4.0761,-4.0758,-4.0781,-4.0805,-4.0799,-4.081,-4.0844,-4.0832,-4.0694,-4.0673,-4.0654,-4.0638,-4.0847,-4.0848,-4.0976,-4.0977,-4.0978]},{"header":{"parameterUnit":"m.s-1","parameterCategory":1,"la1":30.2991,"la2":30.254,"lo1":-89.0895,"lo2":-89.0444,"dy":0.0017,"dx":0.0017,"nx":28,"ny":28,"refTime":"2024-03-03T09:00:00:Z","depth":0,"parameterNumber":3,"parameterNumberName":"V-component_of_WINDS"},"data":[0,0,0,0,0,0,0,0,0,0,0,0,0,0,0,0,0,0,0,0,0,0,0,0,0,0,0,0,0,0,0,0,0,0,0,0,0,0,0,0,0,0,0,0,0,0,0,0,0,0,0,0,0,0,0,0,0,0,0.6544,0.6545,0,0.6638,0.6639,0.664,0.6692,0.6692,0.6692,0.6692,0.6788,0.679,0.6793,0,0,0,0,0,0,0,0,0,0,0,0,0,0.641,0.6412,0.6543,0.6545,0.6546,0.6637,0.6639,0.664,0.6692,0.6692,0.6692,0.6693,0.6787,0.679,0.6793,0,0,0,0,0,0,0,0,0,0,0,0,0,0.6482,0.6412,0.6543,0.6583,0.6587,0.6637,0.6639,0.664,0.6692,0.6692,0.6692,0.6693,0.6786,0.679,0.6793,0.6811,0,0,0.6804,0.6806,0,0,0,0,0,0,0,0,0.6478,0.6487,0.6576,0.658,0.6585,0.6653,0.6626,0.6697,0.6692,0.6652,0.6692,0.6693,0.6743,0.675,0.6767,0.6815,0.6819,0.6804,0.6807,0.6808,0.6809,0,0,0,0,0,0,0,0.6473,0.6483,0.6581,0.6577,0.6583,0.6596,0.6607,0.664,0.6695,0.6656,0.666,0.667,0.6745,0.6763,0.677,0.682,0.6804,0.6808,0.681,0.6811,0.6889,0.6889,0,0,0,0,0,0,0.6461,0.6479,0.6578,0.6584,0.6531,0.6598,0.661,0.6631,0.6695,0.6705,0.667,0.6672,0.6757,0.6765,0.6773,0.6799,0.6808,0.6811,0.6814,0.6889,0.6889,0.6889,0,0,0,0,0,0,0.6458,0.647,0.6574,0.6532,0.6547,0.66,0.6624,0.6633,0.6651,0.6706,0.6716,0.6678,0.6758,0.6768,0.6801,0.6803,0.6813,0.6816,0.6889,0.6889,0.6889,0.6849,0,0,0,0,0,0,0.6454,0.6468,0.6475,0.6532,0.6549,0.66,0.6624,0.6635,0.6657,0.6661,0.6716,0.6725,0.6759,0.6796,0.6805,0.6808,0.6819,0.6889,0.6889,0.6889,0.6851,0.6848,0.6845,0,0,0,0,0,0.6449,0.646,0.6475,0.6487,0.6558,0.66,0.661,0.6648,0.6657,0.6665,0.67,0.6724,0.6801,0.6799,0.6809,0.6814,0.6889,0.6889,0.6889,0.6852,0.6848,0.6845,0,0,0,0,0,0,0.6401,0.6468,0.6486,0.6515,0.6551,0.6609,0.6619,0.6643,0.6677,0.668,0.6726,0.6738,0.6767,0.6794,0.6789,0.6835,0.6848,0.685,0.6816,0.6813,0.681,0.6803,0.6822,0,0,0,0,0,0.6394,0.6422,0.6479,0.6499,0.6517,0.6565,0.6584,0.6611,0.6651,0.6666,0.6704,0.6741,0.6775,0.6795,0.6829,0.6855,0.6868,0.6863,0.686,0.6858,0.6859,0.6876,0.6875,0.6888,0.6888,0.6888,0,0,0.6379,0.6419,0.6434,0.6491,0.6522,0.6551,0.6577,0.6606,0.6628,0.6671,0.6705,0.6734,0.6779,0.6809,0.6824,0.6832,0.6859,0.6858,0.6855,0.6858,0.6876,0.6875,0.6873,0.6888,0.6888,0.6888,0,0,0.6367,0.64,0.6421,0.6452,0.65,0.6532,0.6537,0.6592,0.6613,0.6648,0.6681,0.6707,0.6763,0.6794,0.6817,0.6818,0.6842,0.6828,0.6814,0.683,0.6829,0.6828,0.683,0.6829,0.6829,0.6829,0.6829,0,0.6342,0.6387,0.6429,0.6456,0.6481,0.6521,0.6543,0.6572,0.6627,0.6643,0.6652,0.6724,0.6757,0.6795,0.6796,0.6813,0.6821,0.6822,0.6826,0.6826,0.6826,0.6827,0.6828,0.6827,0.6827,0.6827,0.6828,0,0.6355,0.6386,0.6397,0.6451,0.6476,0.6501,0.6547,0.6568,0.6593,0.6624,0.666,0.6701,0.6744,0.6755,0.6779,0.6797,0.6801,0.6817,0.6831,0.6822,0.6824,0.6825,0.6824,0.6825,0.6825,0.6826,0,0,0.6314,0.6392,0.6395,0.6421,0.6477,0.6502,0.6529,0.6571,0.6589,0.6626,0.665,0.6697,0.6713,0.6739,0.6767,0.6781,0.6781,0.6796,0.6798,0.6792,0.6805,0.6793,0.6793,0.6797,0.6797,0.6798,0.6801,0,0.631,0.6361,0.64,0.6436,0.6465,0.6505,0.6528,0.6566,0.6596,0.6626,0.6659,0.6692,0.671,0.6726,0.6742,0.6778,0.6784,0.6778,0.682,0.6821,0.6808,0.6794,0.6781,0.6783,0.6803,0.6803,0.6803,0,0.6313,0.635,0.6388,0.6443,0.6457,0.6477,0.6521,0.6548,0.6592,0.6613,0.6643,0.6672,0.6703,0.6715,0.6758,0.6753,0.6773,0.6793,0.6794,0.68,0.6811,0.68,0.6784,0.6784,0.6805,0.6805,0.6804,0,0.628,0.6339,0.6371,0.6391,0.6456,0.6469,0.6497,0.6541,0.6564,0.6602,0.6618,0.6658,0.668,0.6711,0.6751,0.6756,0.6791,0.6805,0.681,0.6809,0.6815,0.6814,0.6803,0.6827,0.6827,0.6827,0.6827,0,0.6272,0.6294,0.6357,0.6376,0.6403,0.6448,0.6473,0.6504,0.6543,0.6569,0.6606,0.663,0.6681,0.6711,0.6742,0.6774,0.6784,0.6802,0.681,0.6799,0.6797,0.6813,0.6814,0.6827,0.6827,0.6827,0.6827,0,0.6239,0.6282,0.6319,0.6378,0.6393,0.641,0.646,0.6481,0.6514,0.6547,0.6557,0.6609,0.6646,0.6689,0.6741,0.6762,0.6792,0.6803,0.6777,0.6782,0.6784,0.6783,0.6782,0.6785,0.6806,0.6806,0.6806,0,0.6231,0.625,0.6311,0.6331,0.6358,0.639,0.6415,0.646,0.6485,0.6537,0.6551,0.6591,0.6626,0.6685,0.6727,0.6767,0.678,0.6777,0.6786,0.6775,0.6781,0.6779,0.6782,0.6774,0.6774,0.6773,0.6773,0,0.6213,0.6234,0.6268,0.631,0.6339,0.6374,0.6411,0.6426,0.6479,0.6504,0.6544,0.6571,0.6624,0.6664,0.671,0.6738,0.6765,0.677,0.6773,0.6762,0.6746,0.6756,0.677,0.677,0.677,0.677,0.6771,0.6771,0.6193,0.6212,0.6258,0.6295,0.6328,0.6362,0.6385,0.6421,0.6455,0.6502,0.6527,0.6566,0.6611,0.6675,0.6703,0.6734,0.6743,0.6747,0.6748,0.6749,0.6746,0.6741,0.6742,0.6743,0.6743,0.6743,0.6743,0,0.6177,0.6209,0.6243,0.6294,0.6324,0.6347,0.6389,0.6413,0.6447,0.6486,0.652,0.6566,0.6606,0.6651,0.6694,0.671,0.6724,0.672,0.6719,0.6726,0.6735,0.6729,0.6709,0.6709,0.6709,0.6709,0.6709,0.6709,0.6172,0.6206,0.6232,0.6282,0.6315,0.6354,0.6376,0.6408,0.644,0.6489,0.6523,0.6553,0.6595,0.6641,0.6679,0.6691,0.6705,0.6698,0.6714,0.6722,0.6725,0.6728,0.6722,0.6701,0.6701,0.6702,0.6702,0.6702]}]]